Weather in Tukhchar

Russia / Republic of Dagestan     43°13′19″N   46°24′48″E
temp.,
°C
wind,
m/s
gust,
m/s
humid.,
%
clouds,
%
prec.,
mm/h
press.,
hPa
HPBL,
m
15 april, thu
thu1500:00+10wsw487954 0.0 1017186
03:00+9sw5108081 0.0 1017197
06:00+9wsw411775 0.0 1018264
09:00+15w79522 0.0 1017930
12:00+19nw56400 0.0 10161530
15:00+20nnw4437100 0.0 10161865
18:00+16nne224963 0.0 101611
21:00+13ssw2252100 0.0 101812
16 april, fri
fri1600:00+12ssw225391 0.0 101716
03:00+11sw225880 0.0 101811
06:00+11ssw11626 0.0 101910
09:00+17ne23476 0.0 1019591
12:00+20ene554068 0.0 10171559
15:00+21e76375 0.1 10161504
18:00+15e59561 0.2 1017229
21:00+12se22649 0.2 101735
17 april, sat
sat1700:00+12sw22705 0.0 101717
03:00+11ssw11744 0.0 101611
06:00+12sw117252 0.0 101711
09:00+17w7953100 0.0 1020817
12:00+18wnw7951100 0.0 10201497
15:00+16nw566295 0.0 10211183
18:00+14w3574100 0.1 1022341
21:00+13wsw3677100 0.1 1023334
18 april, sun
sun1800:00+12wsw2379100 0.1 1022230
03:00+11wsw0181100 0.1 102261
06:00+11ene1182100 0.0 102159
09:00+13ene3376100 0.0 1020514
12:00+17ne4461100 0.0 10181121
15:00+17ene446099 0.0 10171149
18:00+14e2377100 0.3 1019154
21:00+12ese3482100 0.4 1020141
19 april, mon
mon1900:00+11nnw1188100 0.4 102196
03:00+12w2392100 1.3 1022114
06:00+12nnw239169 0.1 1022106
09:00+13n1180100 0.1 1023382
12:00+17ne326481 0.0 1022829
15:00+19ene435772 0.0 10211318
18:00+13e7106692 0.0 1022357
21:00+10e597152 0.0 1022242